Location: Allentsteig
(48.6833°N, 15.3167°E)
Time: 08:46:13
(UTC+00:00)

Cosmos 2298 Rocket - Pass Details

Date: 24 January 2021
Orbit: 775 x 784 km, 74.0° (Epoch: 24 February)

Event Time Altitude Azimuth Distance (km) Brightness Sun altitude
Exits shadow 03:16:26 16° 11° (N) 1,979 6.3 -33.0°
Maximum altitude 03:19:13 23° 50° (NE) 1,630 6.1 -32.6°
Drops below altitude 10° 03:23:24 10° 102° (ESE) 2,344 7.3 -31.9°
Sets 03:26:16 0° 117° (ESE) 3,268 8.0 -31.4°
